Theta_e
300 292 291 291 292 297 296 297 297 298 298 297 296 296 294 293 294 298 299 300 299 295 294 297 300 300 299 299 301 303 305 305 305 304 305 305 306 306 306 307 307 307 308 311 312 312 313 313 313 314 313 312 311 310 311 310 309 311 311 311 310 311 313 314 311 311 310 310 311 312 313 312 314 317 324 324 329 328 328 328 328 330 331 332 331 333
300 292 293 295 297 298 298 297 297 295 295 293 292 293 290 295 290 297 297 300 299 295 293 297 299 299 299 300 302 304 304 303 303 304 304 305 305 306 306 306 306 307 310 311 311 313 313 312 313 313 312 315 309 311 310 309 309 310 310 310 310 311 312 312 312 311 311 311 311 310 312 313 314 315 319 321 324 328 328 327 327 328 329 330 330 333
293 293 296 298 300 298 297 297 296 295 293 293 291 289 288 291 294 295 297 300 302 296 293 294 295 298 299 300 301 303 303 303 305 306 306 305 305 305 305 306 306 307 308 311 311 311 311 312 312 312 311 310 309 309 310 310 310 310 310 309 310 310 311 311 315 312 310 311 312 311 312 313 313 316 319 321 323 329 326 325 325 326 327 329 329 330
292 293 298 301 298 297 296 296 295 293 293 291 291 288 288 293 289 285 293 298 300 298 292 295 293 295 300 301 301 304 305 305 306 307 307 307 306 305 305 306 306 307 308 308 308 309 309 311 311 310 310 310 310 309 307 308 310 311 312 309 309 310 310 311 314 317 312 315 314 313 313 314 314 315 322 320 321 326 324 323 324 324 325 328 328 328
292 298 302 299 297 296 294 294 294 290 290 293 293 290 290 291 292 291 291 294 294 293 296 293 293 294 297 298 299 304 307 306 306 306 306 306 307 308 308 308 308 308 308 308 308 309 309 308 308 309 312 310 308 308 307 308 310 312 308 309 309 309 310 310 314 311 313 313 311 312 312 314 314 314 314 314 316 320 323 323 321 322 324 326 327 327
295 300 299 298 295 295 294 294 293 291 288 289 293 293 292 292 292 292 292 291 285 284 290 292 283 286 293 298 299 301 302 302 304 304 303 305 306 307 307 307 308 309 308 308 308 308 308 308 309 309 311 307 307 308 310 308 310 309 309 309 309 309 310 310 310 311 313 311 309 309 309 309 308 309 310 311 313 316 318 318 320 321 323 325 327 327
297 298 297 295 295 294 294 294 296 293 288 286 290 295 294 293 292 291 290 288 281 282 289 296 284 278 288 294 297 299 300 301 302 302 303 304 305 306 306 307 309 309 308 309 308 308 307 307 307 307 306 306 307 308 310 309 309 309 309 309 310 310 310 311 310 310 314 310 310 309 308 308 307 307 310 312 315 317 318 319 318 319 322 324 327 327
299 297 296 296 296 293 292 291 295 294 287 287 294 295 294 293 292 291 292 289 284 289 291 292 286 280 284 287 298 299 299 299 300 301 302 304 304 305 305 307 308 308 309 310 308 307 307 307 306 306 306 307 308 308 309 308 308 308 309 308 309 311 312 310 311 309 311 310 310 309 308 312 309 308 310 312 316 319 322 318 317 318 322 324 327 328
297 295 294 294 293 291 291 295 296 296 290 291 293 294 295 295 293 293 290 287 289 288 284 285 292 282 282 291 299 299 297 297 298 300 301 303 304 305 305 307 308 309 310 310 308 306 305 306 306 307 307 308 308 308 308 307 307 308 309 310 309 308 309 309 311 311 309 313 311 309 309 308 310 312 313 315 317 317 317 315 316 317 321 324 327 329
299 298 296 296 291 291 295 295 296 297 291 294 295 296 296 295 294 293 289 288 287 284 279 284 289 279 281 289 294 297 295 295 297 299 302 303 304 305 306 306 307 308 309 309 309 307 306 307 307 307 308 308 308 309 312 307 307 308 309 311 308 308 308 309 308 308 308 308 311 308 308 308 308 310 311 314 314 315 314 313 315 317 320 324 326 327
300 307 304 298 295 297 296 297 297 296 295 297 296 294 292 291 290 291 289 287 282 279 279 286 290 283 278 287 291 292 293 296 297 299 301 303 304 305 305 306 307 308 308 309 308 306 306 307 308 307 306 307 307 308 307 306 307 307 306 306 306 307 308 309 308 308 307 308 308 308 308 308 308 309 310 310 312 313 312 313 314 316 319 323 325 326
300 300 296 299 302 300 298 297 298 297 296 295 292 289 287 285 286 283 282 284 279 276 281 288 292 290 280 284 291 295 296 299 300 299 301 302 303 304 305 306 307 308 308 310 309 306 306 306 306 306 306 306 307 307 307 305 306 307 306 305 304 305 308 308 308 308 307 307 308 308 308 308 309 308 310 310 311 312 310 312 313 315 317 319 325 325
293 294 298 300 303 300 297 292 294 295 295 292 289 288 282 277 278 277 278 277 279 279 286 290 292 287 284 286 291 296 298 300 302 302 303 303 303 304 305 307 307 308 308 309 308 305 305 305 304 304 305 305 304 305 305 305 305 305 305 304 304 304 306 306 307 307 306 306 307 308 308 308 311 310 310 311 311 311 310 312 313 314 314 317 322 323
287 294 298 298 299 302 295 288 287 288 291 290 287 284 278 275 273 272 272 275 276 282 287 288 291 282 287 290 296 297 299 301 302 303 305 304 304 305 306 306 307 307 307 308 308 305 305 304 304 304 304 304 304 305 306 306 306 305 305 305 304 304 306 308 307 307 306 306 307 308 310 310 310 309 310 309 310 311 310 313 314 314 315 316 319 322
279 283 290 294 291 298 295 292 291 290 291 290 293 290 284 279 277 275 275 276 274 277 283 290 286 282 283 285 298 300 301 303 303 305 305 305 306 306 306 307 307 307 306 306 306 305 304 304 304 304 303 302 304 305 305 303 303 303 303 303 305 305 306 306 306 306 306 306 307 309 312 313 313 311 309 309 313 312 310 312 313 314 316 316 317 320
290 286 292 299 299 298 295 298 297 294 288 291 292 290 287 285 283 281 277 280 277 279 277 282 282 286 285 296 300 301 302 303 304 304 305 304 304 305 304 305 306 306 306 306 304 304 304 304 304 304 304 303 305 305 303 303 303 302 303 303 305 305 305 307 308 306 306 306 307 308 310 311 315 315 312 311 312 310 310 311 312 314 315 316 316 318
285 284 294 298 298 294 296 298 298 295 283 289 289 284 289 292 289 283 280 285 282 278 277 278 285 290 293 296 298 300 300 301 302 302 303 303 303 303 304 305 305 305 304 304 304 303 303 304 304 304 303 302 304 304 303 303 304 303 304 304 304 304 305 306 308 306 305 305 305 308 311 311 310 310 310 310 310 310 311 312 312 313 315 317 317 317
286 286 294 294 294 297 298 298 299 300 295 288 285 289 294 294 291 284 279 279 275 275 276 281 282 284 283 281 294 298 298 299 300 300 302 302 302 302 303 303 304 304 304 304 304 304 304 304 304 303 303 302 302 303 303 305 303 303 303 304 304 304 304 305 306 306 306 305 306 307 309 311 312 312 312 312 312 312 312 312 312 313 315 316 317 318
290 282 289 295 296 298 301 298 296 298 300 294 293 298 288 279 281 283 280 273 275 273 274 281 284 283 283 285 292 293 295 297 298 300 300 300 301 302 301 302 302 303 303 303 303 303 303 302 302 302 302 302 303 306 304 304 304 304 303 304 304 304 304 305 306 307 305 306 308 309 309 310 312 313 314 314 315 313 311 312 312 312 313 315 317 318
291 283 284 293 295 297 297 293 285 289 296 298 297 292 294 286 283 280 280 281 278 274 273 278 281 278 288 286 290 294 296 298 298 298 299 301 302 302 301 301 300 301 302 303 303 302 302 302 302 302 302 302 302 303 303 303 303 303 303 305 304 305 304 304 304 307 305 305 306 310 311 311 313 314 314 313 312 312 312 312 313 313 313 314 316 315
288 287 281 288 294 295 286 291 289 291 286 288 286 285 286 287 290 287 284 284 280 276 273 273 273 279 284 291 292 292 293 297 299 299 300 300 302 302 302 300 300 301 302 302 302 302 302 302 301 302 302 302 303 305 303 302 302 302 302 302 303 302 303 304 305 306 305 306 306 310 311 311 311 312 313 313 312 314 315 313 315 314 315 315 314 314
284 284 284 284 288 285 289 294 298 298 293 290 287 287 288 283 281 278 279 285 284 280 278 275 273 277 287 298 296 294 294 297 300 301 300 300 301 301 302 300 300 300 300 301 301 301 302 302 302 302 303 303 303 302 302 302 301 301 301 302 301 301 304 304 305 306 306 307 306 309 312 312 312 312 312 312 313 315 315 315 315 315 317 315 315 314
292 288 287 284 286 289 293 299 302 302 299 296 292 292 290 284 281 275 277 278 280 283 286 280 277 278 289 296 295 295 294 296 300 300 300 300 299 298 301 301 300 301 301 301 302 302 302 302 301 301 301 301 302 301 301 301 301 301 301 302 302 302 303 304 304 306 308 307 306 307 310 312 312 311 311 312 313 314 314 316 316 318 317 317 316 316
311 286 281 284 289 292 294 296 298 300 298 293 293 294 289 288 287 281 278 280 281 281 278 275 277 279 290 296 297 295 296 295 295 298 298 297 298 298 299 299 300 300 301 302 302 302 302 301 300 301 301 301 301 301 301 301 301 301 301 301 301 302 303 305 305 307 307 307 306 305 309 311 312 311 311 312 314 314 314 316 317 318 317 316 316 314
285 285 285 278 276 280 284 289 290 294 294 288 289 290 292 290 289 289 286 283 282 281 283 276 274 276 288 296 296 297 298 297 296 297 297 297 298 299 299 300 300 300 301 301 301 301 301 300 300 300 300 300 300 300 301 301 301 301 301 301 302 303 303 304 306 306 306 306 305 305 307 310 311 310 311 312 314 313 313 314 317 318 316 314 313 313
288 287 284 280 278 276 276 278 280 282 285 290 292 292 293 292 286 287 282 278 279 281 284 279 276 281 289 294 295 295 296 297 299 297 297 298 299 299 299 300 300 300 300 300 300 300 300 300 300 299 299 300 300 300 301 301 301 301 301 301 302 302 302 305 305 305 304 304 304 304 305 308 310 310 311 312 313 314 314 314 315 316 316 314 312 311
289 291 286 279 279 279 282 286 289 292 287 285 287 291 292 292 288 283 280 279 280 277 278 280 281 282 289 291 293 295 294 295 297 297 295 296 298 299 299 300 299 299 300 300 300 300 299 299 299 299 299 299 299 300 301 301 301 300 300 301 302 303 304 305 304 303 303 304 303 303 305 308 309 310 311 312 313 314 313 312 314 314 314 314 312 311
289 285 291 291 288 288 291 292 295 295 288 285 286 286 289 289 289 284 282 282 280 280 279 281 286 285 287 290 292 292 294 294 295 296 297 296 296 298 299 299 303 299 299 298 299 299 299 299 299 298 299 299 299 300 300 300 300 300 300 300 301 302 304 306 304 303 303 302 302 301 304 307 309 310 311 312 312 313 314 314 313 313 312 312 310 309
288 285 291 293 291 293 294 294 295 293 293 290 289 285 286 285 285 283 280 282 283 281 282 282 286 286 289 292 293 293 294 295 295 296 297 298 298 298 297 298 299 299 299 299 299 299 299 299 298 298 299 299 299 299 299 300 300 300 301 301 302 301 304 304 303 302 301 301 301 302 302 306 309 310 310 310 310 312 312 311 309 309 309 309 310 312
290 284 291 294 291 290 293 294 295 293 292 293 292 290 289 285 285 285 284 285 287 282 285 286 286 288 291 293 294 295 296 297 296 297 297 297 297 297 297 297 298 298 298 298 299 299 299 299 299 299 298 298 298 298 298 298 298 299 299 300 301 302 304 304 302 301 301 301 302 301 303 306 309 309 309 309 309 311 311 309 309 308 307 309 309 310
292 287 296 291 286 288 291 293 294 294 292 289 290 291 290 286 283 281 282 283 286 283 283 285 285 287 291 293 294 295 295 296 297 296 296 295 296 297 296 297 297 297 297 298 299 299 299 299 299 298 298 298 297 298 298 298 298 299 299 300 300 301 303 304 303 301 300 301 302 301 303 305 307 308 308 308 310 310 310 310 308 307 309 311 311 312
294 286 292 286 284 283 288 292 292 292 292 288 285 285 282 285 285 281 285 284 283 283 281 283 282 282 288 290 294 295 296 296 296 296 296 297 297 298 295 296 296 297 296 298 299 299 299 299 298 298 297 297 297 298 298 298 298 298 298 298 299 302 304 303 302 301 301 302 302 302 303 305 307 307 307 308 309 311 310 310 309 310 312 311 311 312
291 289 287 284 285 279 285 290 291 287 285 283 280 284 286 283 283 284 286 288 286 282 281 280 282 286 289 293 294 293 294 295 295 294 296 297 297 297 297 296 296 296 297 298 299 300 299 298 298 297 297 297 298 298 298 297 298 298 298 299 300 304 303 302 301 300 300 301 302 302 303 305 307 307 306 306 308 310 311 311 310 311 311 311 311 311
293 290 285 286 284 280 285 288 287 281 277 279 286 291 291 290 288 285 283 286 290 289 287 289 291 290 289 291 292 294 294 294 296 298 298 299 297 296 298 297 297 297 296 298 299 299 298 297 297 297 297 297 297 298 298 299 298 298 300 300 301 303 302 302 301 300 301 301 300 303 304 306 307 306 307 307 307 308 309 310 310 310 311 312 311 310
292 288 286 287 285 282 283 283 279 275 276 285 291 296 297 296 293 292 290 289 290 291 292 292 292 292 294 294 295 296 297 298 298 299 300 299 298 297 297 298 298 297 296 297 297 297 297 297 297 296 296 297 299 298 298 298 299 298 298 300 300 302 302 301 301 300 299 299 301 302 304 305 306 306 307 307 308 307 306 308 308 309 311 311 310 308
288 286 285 286 282 281 281 278 276 275 284 291 294 297 299 298 295 293 290 292 293 294 294 292 294 295 295 295 297 298 298 299 299 301 301 300 299 298 297 298 298 298 297 297 297 296 297 297 297 297 297 301 299 299 298 297 298 297 298 299 300 300 301 302 301 301 299 299 300 301 302 304 305 306 306 306 307 306 306 306 304 305 307 312 310 309
294 289 285 287 287 283 278 279 283 285 288 287 290 295 293 291 291 289 284 286 292 294 294 293 295 295 296 296 297 297 296 295 293 296 299 301 300 299 300 299 299 299 298 298 299 298 298 298 298 298 299 297 297 297 297 298 297 297 297 298 300 300 301 301 300 299 299 301 300 301 300 302 303 306 306 305 305 305 306 305 304 304 308 308 309 308
296 291 287 286 284 283 284 280 279 277 277 281 288 294 300 298 298 294 291 288 293 296 297 296 294 294 295 296 296 296 293 292 289 292 297 301 301 301 301 301 300 301 301 300 299 299 298 298 298 299 298 297 296 296 297 297 297 297 296 298 298 299 300 299 299 299 300 299 300 301 300 300 303 305 306 305 304 302 301 303 305 304 309 307 306 304
297 295 291 284 283 284 283 280 277 277 278 282 290 298 299 300 298 294 289 285 289 295 298 298 296 297 297 297 297 295 293 288 287 290 297 299 300 301 301 301 301 301 300 299 299 298 298 298 299 299 298 296 296 296 296 297 296 296 296 299 298 296 295 296 298 299 300 300 300 299 300 300 301 302 301 301 301 301 301 302 303 305 307 307 306 303
292 287 285 286 285 282 280 281 279 280 282 291 292 297 300 299 297 291 281 279 288 294 298 299 298 298 299 299 296 293 291 288 286 294 296 299 300 301 302 300 299 299 298 299 299 299 299 300 300 297 296 296 297 297 296 295 296 299 299 299 296 296 296 296 298 300 300 300 300 300 300 300 303 303 302 300 300 300 300 302 303 303 304 303 303 302
288 287 286 285 283 283 283 279 279 282 289 295 298 300 300 299 294 283 280 284 290 295 299 299 300 302 302 300 299 296 293 294 295 297 298 300 300 301 302 302 301 300 299 299 299 301 299 299 299 297 297 297 298 297 296 296 296 297 298 297 294 295 296 297 299 301 301 299 299 299 300 299 300 300 300 299 300 300 302 301 301 301 302 301 301 301
283 284 283 283 283 282 281 282 283 280 286 298 300 300 302 296 283 282 290 295 297 298 300 300 301 302 302 300 299 297 297 299 301 300 301 299 300 301 301 301 300 299 300 301 301 300 299 298 297 295 296 298 298 298 297 295 296 297 296 294 293 295 296 298 300 300 299 299 299 299 299 298 298 300 303 302 301 298 297 298 299 300 300 300 301 299
283 284 282 282 282 282 280 281 279 279 288 299 300 296 296 287 286 291 294 299 300 300 300 300 300 300 300 299 299 301 300 301 301 301 301 300 298 300 300 300 300 300 300 299 298 299 299 297 297 296 298 298 298 298 296 295 296 295 295 294 295 295 296 297 298 299 299 299 299 300 299 298 298 300 302 301 301 298 296 295 296 296 298 296 297 298
289 286 282 282 285 282 280 280 281 284 289 298 298 288 291 296 294 297 299 297 300 299 300 299 299 300 300 300 300 299 301 302 301 300 300 301 299 299 300 300 300 300 300 300 300 299 300 299 298 297 297 298 298 298 297 296 296 295 294 294 295 295 296 296 296 296 296 297 296 297 299 300 300 298 297 298 297 295 293 293 294 296 296 296 297 296
290 289 285 286 289 285 283 281 287 292 295 299 300 298 297 299 300 302 300 300 299 299 301 298 300 300 300 302 302 301 300 301 301 302 301 301 301 299 300 300 300 300 300 300 300 300 300 299 298 297 297 297 297 297 297 296 297 296 294 295 296 296 296 296 297 295 296 296 296 295 296 297 296 296 296 296 294 294 293 293 293 294 295 296 296 296
295 297 292 290 290 293 292 295 296 296 298 299 302 302 300 301 302 302 301 300 301 300 301 301 301 301 302 303 302 299 300 300 300 301 301 301 301 301 301 300 299 300 300 300 300 300 300 299 299 298 298 297 297 297 298 297 297 297 295 295 297 295 296 297 295 295 295 295 295 295 295 295 293 292 292 294 294 293 292 292 293 294 293 295 295 295
295 297 293 291 292 289 285 290 294 296 297 298 299 300 300 302 303 303 301 302 303 303 302 303 303 303 303 302 302 301 300 300 301 301 301 302 301 302 301 300 300 300 300 299 300 300 300 299 299 298 298 298 297 297 298 296 296 297 297 298 297 296 296 296 295 296 295 295 295 295 294 293 291 291 291 291 291 292 293 290 289 292 293 293 294 294
290 297 290 289 290 287 286 290 295 296 297 299 297 299 301 302 303 304 304 304 304 304 304 304 303 302 301 302 302 301 301 300 301 302 302 302 303 303 302 301 301 300 300 301 301 300 299 299 299 299 299 299 298 298 298 297 297 297 298 297 296 295 296 296 295 294 294 293 293 294 293 293 296 293 290 290 289 289 288 288 289 290 291 291 292 292
292 295 286 289 289 288 290 292 294 294 294 294 298 298 299 300 302 303 304 304 304 304 304 303 301 302 300 303 302 301 301 300 302 303 303 303 302 301 302 302 301 301 301 301 301 300 299 298 299 300 299 299 299 298 298 297 296 297 297 297 296 295 296 295 293 293 291 292 294 296 295 294 292 291 290 288 288 287 286 287 287 288 288 287 287 291
293 288 289 288 283 281 287 289 293 289 286 291 294 297 299 299 301 300 302 302 301 301 301 301 302 301 302 303 303 301 302 302 302 301 302 303 303 302 302 303 302 301 301 302 303 301 300 299 300 299 300 300 299 299 298 297 297 298 298 297 296 296 296 296 293 292 292 292 293 293 293 294 291 291 290 288 288 288 289 289 290 288 286 287 290 286
291 289 290 287 284 284 289 292 294 293 291 292 296 298 299 299 299 300 300 299 299 299 300 299 299 298 298 299 302 304 303 303 303 302 302 303 303 304 303 303 303 302 301 301 301 300 299 299 300 299 299 299 299 299 299 298 297 298 297 297 297 297 296 294 293 292 291 293 293 293 294 294 291 290 289 288 288 288 288 287 288 289 290 291 290 289
Wind_Speed
2 7 2 2 6 1 2 3 3 2 4 1 2 3 2 3 2 3 1 3 3 3 2 6 8 9 8 4 4 10 13 13 14 13 12 11 12 10 9 8 8 8 8 6 7 6 6 5 4 4 3 3 3 3 3 4 4 3 3 4 5 4 4 4 5 5 5 5 6 6 6 6 7 6 5 5 4 5 4 5 5 5 5 3 3 3
6 5 3 3 5 0 3 6 6 4 3 4 3 3 1 0 4 4 3 3 1 3 0 6 9 9 7 4 6 11 15 14 16 14 14 13 11 10 10 10 10 8 7 8 6 6 5 4 5 5 4 4 4 1 2 3 2 3 4 5 4 4 5 5 4 4 5 3 2 3 4 4 6 6 6 6 5 4 4 4 5 6 5 5 4 4
5 1 2 4 4 5 4 7 6 5 4 8 3 3 4 6 1 2 4 3 0 4 3 5 8 6 6 5 4 9 11 10 13 17 15 16 13 11 11 12 11 10 10 9 10 8 7 6 5 5 4 3 4 2 2 1 3 4 4 4 4 4 4 4 4 4 3 3 4 3 4 5 5 4 4 5 6 4 5 5 5 5 6 5 5 4
4 4 6 3 5 6 5 6 5 6 7 6 7 7 3 3 5 3 6 2 3 1 2 1 10 5 5 4 5 3 10 5 4 9 10 14 17 15 14 13 12 11 11 11 10 9 8 6 6 6 4 3 2 2 3 4 3 3 4 4 4 4 4 4 4 3 4 4 4 4 4 5 3 4 5 4 5 5 6 6 5 3 5 6 5 4
4 1 3 4 6 7 4 5 6 7 6 4 6 3 2 3 1 3 2 5 4 2 4 10 8 4 3 7 3 6 5 10 4 7 6 4 8 9 8 8 11 13 12 11 9 8 7 6 8 8 5 3 3 3 3 3 3 4 4 3 4 3 3 3 4 4 4 5 6 6 7 5 7 6 6 7 8 6 6 6 8 9 7 6 5 5
5 3 3 7 5 6 4 8 4 5 6 3 2 3 2 1 4 3 4 7 8 3 2 7 2 2 3 2 6 3 3 6 1 7 5 6 5 7 10 9 6 8 7 10 10 10 8 8 7 6 7 4 3 4 2 3 4 5 4 3 3 3 3 3 4 4 4 4 4 6 7 7 6 6 7 8 7 7 7 7 6 7 6 6 6 6
1 4 6 5 8 5 5 4 1 5 3 5 3 1 3 3 3 3 3 6 2 1 3 1 5 2 2 2 2 1 3 4 2 2 6 6 7 7 7 6 6 7 5 4 6 7 7 7 8 5 5 5 4 3 3 3 5 5 4 4 3 3 1 2 3 4 4 5 5 4 3 3 3 4 5 5 5 5 5 5 6 6 6 6 5 5
2 5 8 8 9 6 6 7 5 2 5 1 3 1 3 3 3 3 1 2 2 3 3 4 4 5 3 2 1 2 4 4 4 4 5 5 5 5 4 4 4 5 5 6 8 6 7 8 9 7 6 5 5 4 4 4 5 5 4 4 3 2 1 1 2 4 3 4 4 5 5 4 4 4 5 7 7 7 6 7 7 6 6 6 6 6
1 2 4 6 5 5 3 1 4 2 2 3 2 4 2 1 2 2 2 1 0 1 6 7 1 6 0 2 2 3 6 4 6 6 6 5 5 4 4 4 4 4 5 6 7 6 7 8 7 7 5 4 4 4 4 4 5 4 4 3 2 2 1 1 2 3 4 4 4 4 4 5 5 4 5 6 5 5 5 6 7 7 6 7 8 8
1 0 3 5 4 1 3 3 0 4 3 2 2 1 0 2 1 1 1 4 2 2 4 4 1 4 1 1 3 1 0 4 7 6 7 8 7 6 6 5 4 3 3 4 6 7 7 8 7 6 5 4 4 4 4 4 5 4 4 3 3 1 1 0 2 3 4 4 4 5 5 4 6 6 6 5 6 6 6 7 8 7 7 7 7 8
1 1 1 4 1 1 1 2 5 8 3 2 6 4 5 4 2 1 2 2 3 0 2 5 2 7 1 4 7 6 6 8 5 1 3 3 4 4 5 6 6 5 4 5 6 7 6 6 7 5 5 5 4 4 4 4 5 4 4 3 3 3 1 1 3 3 3 3 4 3 4 4 4 5 5 7 8 7 8 8 8 8 8 7 6 6
6 3 2 0 2 2 4 4 5 4 5 7 3 2 6 5 8 4 3 4 2 2 5 3 3 2 5 3 6 7 4 5 10 9 8 6 7 6 6 5 5 5 4 5 6 6 5 5 4 4 5 4 4 4 3 4 4 4 3 3 2 2 2 2 2 3 3 3 3 3 3 3 3 3 4 5 6 6 7 7 7 7 7 7 5 5
4 3 0 2 3 7 3 6 7 7 9 8 3 8 6 3 5 2 6 2 1 3 2 1 3 5 2 2 6 4 3 3 6 8 11 10 7 6 6 6 5 5 5 5 6 6 5 6 5 5 4 3 4 5 4 4 5 4 3 2 3 3 2 2 2 2 2 3 3 2 2 3 3 3 3 4 5 4 5 6 7 7 7 7 6 5
4 3 4 5 6 3 5 6 4 6 6 7 5 2 3 1 2 0 2 1 4 6 6 0 1 2 2 2 1 5 3 4 7 5 7 11 10 9 8 6 6 6 6 5 4 5 5 5 5 5 4 4 4 5 4 4 4 4 3 1 4 3 2 2 3 2 2 3 3 3 2 3 3 3 3 4 4 5 4 5 6 6 6 7 7 6
5 4 3 1 1 4 3 3 2 3 1 0 1 0 3 4 0 1 1 0 2 6 7 4 2 2 3 3 1 2 3 3 2 4 6 8 9 8 6 6 5 5 4 3 3 5 6 6 6 5 4 4 5 5 4 4 4 3 3 3 5 4 2 2 2 1 1 2 3 3 3 3 3 3 3 3 4 5 5 6 6 6 5 5 6 6
1 3 5 3 2 1 3 1 2 2 2 1 2 6 5 3 6 1 4 2 2 1 4 4 0 1 2 1 2 1 4 4 3 5 7 5 4 5 4 6 7 6 4 4 5 6 6 6 6 5 4 4 5 5 4 4 4 4 4 4 5 5 3 2 1 0 0 2 3 3 3 4 4 3 3 4 4 4 3 5 5 6 6 5 4 6
4 4 4 4 5 4 2 1 2 3 2 5 5 2 4 6 5 0 1 0 1 3 0 1 2 3 1 5 2 1 4 2 3 4 5 6 6 6 7 7 5 4 5 5 7 8 7 5 5 5 4 4 4 4 5 5 5 4 4 4 4 3 2 2 1 1 1 2 2 3 3 3 4 4 4 4 4 4 4 4 5 5 7 6 4 5
1 5 5 5 3 3 2 1 3 3 2 3 4 5 3 2 5 3 1 4 3 1 1 2 3 1 1 1 1 2 2 1 2 3 4 5 5 7 7 6 5 6 7 8 8 7 7 7 7 5 4 4 3 6 5 5 3 4 4 5 5 4 3 1 1 1 1 2 2 3 3 4 3 3 4 4 4 4 4 5 5 5 6 6 5 4
2 2 1 3 5 4 7 6 7 6 3 4 1 2 4 1 2 4 2 2 3 2 1 1 1 1 3 2 3 3 3 5 4 3 3 5 6 7 6 6 6 6 6 7 8 6 6 5 5 5 4 5 2 6 6 5 5 4 4 4 5 5 3 3 2 1 2 2 2 2 3 3 3 4 4 4 4 4 3 4 5 5 5 6 7 6
4 2 4 4 4 3 3 5 3 6 8 2 2 5 1 5 2 1 0 2 4 2 2 3 3 1 1 2 6 9 8 7 5 4 7 9 9 8 5 5 6 6 8 7 6 6 6 6 5 6 5 5 6 6 5 6 5 5 4 4 3 2 3 2 3 1 1 2 2 3 3 3 3 4 3 4 4 4 4 4 4 4 5 6 5 5
1 2 1 6 7 3 2 2 0 2 2 6 7 4 5 1 1 2 1 1 1 2 1 1 1 2 6 4 3 5 6 8 9 10 9 9 9 7 7 6 6 6 7 7 7 7 6 6 5 5 7 3 5 5 5 6 6 5 3 3 3 4 3 2 2 1 0 1 1 1 3 4 4 4 4 4 4 4 4 4 4 4 4 4 5 4
2 2 0 4 6 2 2 4 2 2 1 2 2 1 2 2 4 2 3 3 2 2 0 0 3 5 8 2 5 6 6 10 11 11 10 8 9 7 7 6 8 7 5 6 7 6 6 6 6 6 1 3 6 5 5 4 4 4 4 3 3 2 3 3 2 1 0 0 2 1 2 3 3 3 4 5 5 5 5 5 4 4 4 3 4 3
3 2 3 2 1 1 3 2 2 4 3 2 3 1 5 4 5 4 0 3 3 1 0 1 1 5 6 2 3 1 4 5 10 9 9 9 6 5 7 8 5 6 7 8 8 7 7 7 7 4 3 5 6 6 6 4 4 4 4 2 1 2 3 4 3 1 1 0 1 3 2 2 3 4 5 5 5 6 6 5 4 4 4 4 4 4
4 2 3 3 5 5 5 5 3 3 3 4 2 1 2 1 3 6 4 2 0 5 2 2 1 3 3 4 4 5 1 2 3 5 7 4 4 5 7 6 7 6 6 6 7 8 8 6 3 4 5 4 4 6 6 5 4 4 3 3 2 3 2 3 3 2 1 0 1 2 1 2 3 4 5 5 5 6 6 5 5 4 3 5 5 6
1 2 3 1 3 6 7 8 6 7 6 2 2 3 1 2 3 1 4 2 0 1 1 2 2 2 3 4 6 6 6 3 3 1 4 4 1 5 7 7 7 8 8 9 9 8 6 4 5 5 6 5 5 6 6 6 4 4 4 3 3 2 2 4 3 2 1 0 1 3 2 3 3 5 5 6 6 6 6 5 4 4 5 5 5 5
4 1 2 1 1 2 4 5 5 4 3 3 1 4 2 1 1 3 1 2 1 1 1 1 3 7 8 6 5 3 5 6 1 1 2 2 8 7 7 8 9 9 10 11 8 6 7 6 5 4 5 4 5 8 7 5 5 4 3 3 2 2 1 4 4 3 2 1 1 3 3 3 4 5 6 6 6 6 5 3 4 5 5 5 4 4
1 1 3 3 2 4 5 5 5 1 2 1 4 1 3 2 2 4 4 3 3 2 1 4 4 3 9 8 7 8 7 3 2 1 4 3 3 5 8 8 8 9 11 11 10 8 5 4 6 6 5 5 5 6 7 6 4 4 4 3 2 1 3 4 4 3 3 1 1 2 3 2 3 4 5 5 6 5 2 2 3 4 4 3 4 4
2 2 0 3 2 2 3 5 4 5 3 3 2 4 3 0 1 3 3 4 5 3 6 4 3 1 7 7 7 5 5 3 1 1 3 3 5 7 8 7 8 6 5 4 5 7 9 8 6 5 5 5 4 6 5 4 5 5 4 4 2 2 5 4 4 4 2 2 2 2 3 3 3 4 4 5 5 3 2 3 3 3 3 3 4 4
3 1 2 1 1 2 3 4 3 2 4 4 4 5 6 4 3 4 4 6 5 3 7 4 4 2 6 7 8 6 6 6 6 6 7 8 7 5 5 6 7 8 7 6 7 7 8 8 7 6 5 5 6 6 5 4 3 2 2 2 1 3 5 4 5 4 3 2 2 2 3 3 3 3 5 6 5 2 2 2 2 2 3 3 3 2
4 0 2 1 0 3 4 2 2 3 2 2 4 5 7 4 9 8 6 3 8 6 6 5 3 7 9 8 9 8 8 8 6 3 0 1 4 8 7 8 9 9 8 8 8 9 8 8 7 7 5 5 7 6 5 4 4 4 3 1 1 3 5 4 4 4 3 2 1 2 3 3 4 4 5 5 3 1 2 2 1 2 3 3 2 2
3 3 4 1 2 2 3 4 1 4 3 4 6 6 5 4 3 2 0 1 1 3 4 2 3 8 7 5 6 5 4 3 5 3 5 5 4 3 6 8 8 8 8 8 8 8 7 7 7 6 5 6 5 6 5 5 4 4 3 2 1 5 4 5 4 3 2 1 1 2 3 2 4 5 5 4 1 2 1 2 1 3 2 3 3 5
2 1 2 2 1 3 3 1 3 2 1 2 8 8 7 2 3 3 2 4 5 7 0 1 2 6 9 5 4 5 4 3 6 6 5 5 4 2 3 5 7 8 7 8 8 8 8 7 6 6 6 4 5 5 5 4 4 4 3 1 1 5 5 4 4 4 2 0 0 2 2 3 3 4 4 3 2 1 2 1 2 2 2 2 3 4
3 4 1 0 0 2 4 1 3 3 4 7 4 3 5 4 1 0 2 2 4 5 3 2 7 6 7 2 4 3 2 6 6 4 3 3 4 5 6 6 6 4 5 7 8 9 8 7 6 5 4 5 5 5 4 4 4 4 2 1 1 6 5 4 4 4 3 1 1 0 2 3 3 4 3 3 5 4 2 1 2 2 1 2 2 2
3 5 2 3 1 2 3 3 1 2 2 2 3 4 6 3 5 5 3 5 6 6 5 6 7 4 3 4 5 6 6 6 6 9 6 9 5 3 1 2 3 4 3 5 6 6 5 5 5 5 5 5 4 3 3 3 4 3 2 1 5 7 5 4 4 4 3 3 3 1 1 1 2 2 2 3 4 3 2 2 2 2 1 1 2 1
4 2 2 2 1 2 2 3 4 2 4 4 4 2 4 1 5 6 6 4 4 6 6 7 9 7 9 7 6 7 6 9 7 5 3 5 6 5 5 1 3 5 4 5 5 5 6 6 6 5 4 4 4 3 3 1 0 1 3 4 4 5 5 4 4 3 3 3 3 1 1 1 1 2 3 2 1 2 3 2 2 2 1 1 3 3
5 4 3 0 2 1 2 2 1 3 4 5 7 4 2 1 1 1 4 5 7 8 9 7 11 10 6 6 7 6 6 8 2 1 1 1 4 9 6 5 4 7 7 6 9 8 9 8 8 7 5 4 4 2 2 2 1 2 2 3 4 5 5 5 4 4 2 2 1 0 1 0 0 2 3 2 1 2 2 2 3 3 3 1 1 2
9 4 4 1 1 1 2 3 6 4 6 4 3 1 2 1 2 2 2 3 0 2 3 5 6 7 6 5 6 5 2 2 4 4 4 1 3 4 8 7 7 6 8 6 8 9 7 8 7 6 5 5 4 4 2 1 1 3 3 4 3 6 5 4 4 3 2 3 2 2 3 1 1 0 2 1 2 2 3 3 3 3 2 2 1 3
9 4 3 3 2 2 1 2 4 3 1 5 4 4 1 2 2 4 3 4 2 4 3 0 4 5 3 3 3 3 4 5 5 1 2 0 2 5 3 5 4 7 8 8 5 7 6 6 5 5 7 6 5 5 4 2 2 1 3 4 2 5 4 4 4 3 3 3 3 4 2 2 0 1 3 2 3 3 3 3 3 3 1 3 2 3
6 5 6 4 1 2 1 1 2 2 5 5 1 1 2 1 6 3 4 6 3 1 2 0 2 2 4 7 7 3 5 3 3 5 4 2 2 4 7 5 7 8 10 12 13 10 8 8 8 7 6 6 5 4 3 2 1 1 3 1 2 1 3 3 5 4 4 4 4 3 1 3 3 2 2 3 4 4 4 5 4 4 2 3 1 3
6 2 2 1 1 3 3 1 3 3 2 1 3 2 1 1 4 6 4 5 3 2 2 1 3 1 4 4 4 3 1 0 5 6 4 5 4 6 8 8 6 6 6 7 7 11 11 8 5 5 6 6 7 5 5 3 2 1 1 0 2 2 1 2 2 6 4 4 4 3 3 2 3 3 2 3 4 4 4 4 4 5 3 2 1 2
2 0 1 7 5 3 4 3 2 4 2 3 2 2 1 1 4 2 4 7 2 3 2 2 1 1 1 4 3 3 4 5 4 6 4 3 3 3 3 6 10 11 11 8 9 7 8 7 8 9 9 8 7 5 5 4 1 1 0 1 2 3 1 2 5 6 5 4 3 3 4 4 4 4 4 3 4 4 4 5 3 2 2 3 2 2
1 2 1 2 2 4 5 4 6 4 5 4 3 3 1 2 0 4 8 4 3 2 1 2 0 2 1 3 3 3 4 4 5 2 3 4 7 8 8 6 5 4 5 7 10 9 8 7 6 5 5 5 8 6 5 4 3 1 0 3 3 2 0 5 6 5 4 4 4 4 4 4 3 3 4 4 3 4 3 3 3 4 3 2 1 2
4 2 3 3 2 1 1 0 2 1 1 4 4 1 1 2 6 7 2 2 3 3 3 3 3 4 2 3 2 3 2 4 3 5 4 4 5 7 7 8 9 10 9 6 5 6 9 7 6 7 9 7 7 6 5 4 3 2 2 4 4 3 1 6 7 5 5 5 4 4 4 4 4 5 3 2 1 2 0 1 4 5 4 3 2 2
2 0 1 2 4 2 1 1 1 5 4 6 5 4 3 8 4 5 6 3 4 4 4 4 4 5 4 4 4 2 2 0 3 4 4 5 5 4 6 7 6 8 8 10 12 11 8 9 7 7 7 7 6 6 5 5 4 4 5 5 5 3 1 3 3 3 4 4 3 4 4 2 3 4 3 2 5 3 2 4 4 5 5 4 5 5
3 1 5 1 2 3 2 4 6 6 6 6 8 6 6 5 2 7 5 6 5 5 5 3 6 5 4 5 5 3 1 3 5 3 2 5 6 6 8 9 10 11 11 11 10 10 9 10 10 8 7 7 7 6 6 5 6 5 5 5 4 4 4 4 4 1 1 0 0 2 1 3 1 0 1 3 3 4 3 4 3 6 5 5 6 6
1 2 2 2 2 2 3 6 1 1 1 2 4 4 4 2 0 2 6 3 4 5 6 6 5 5 5 4 3 3 4 4 4 4 4 4 4 6 5 5 5 6 9 9 7 9 10 8 9 9 10 8 7 6 6 5 6 7 5 4 4 3 4 4 4 2 1 3 2 1 1 4 3 3 3 3 4 3 3 4 4 6 4 6 6 6
2 0 1 1 1 1 2 3 4 1 0 1 2 4 3 3 5 6 4 6 5 5 4 6 6 6 6 4 5 5 6 5 4 5 4 4 4 6 8 9 9 10 10 11 12 10 8 7 8 9 9 10 7 6 6 5 5 6 6 7 5 4 4 5 4 3 2 2 3 1 1 3 3 3 3 3 3 4 4 3 3 4 5 6 7 6
1 0 2 2 1 3 4 2 3 2 1 0 2 4 0 2 4 6 7 6 5 5 5 7 5 5 2 4 6 6 7 5 4 5 5 5 6 6 8 10 10 8 9 11 10 10 9 9 10 10 9 10 9 7 7 5 6 5 6 6 5 5 5 5 4 5 4 3 3 3 2 3 2 3 4 3 3 4 5 4 2 5 5 5 7 7
2 1 2 2 2 5 3 4 3 2 2 1 0 2 2 4 5 5 5 6 7 7 8 7 4 6 4 7 6 6 6 6 7 7 6 6 5 5 6 9 10 12 11 8 8 9 11 10 10 10 10 10 9 8 7 6 5 6 7 6 6 5 5 5 4 4 3 3 2 5 0 1 3 2 4 3 3 3 2 2 2 3 2 1 0 4
0 3 2 2 2 2 3 5 2 1 2 3 3 3 2 3 4 3 3 4 4 5 5 5 7 5 5 6 6 5 7 8 7 4 5 7 7 6 6 8 9 9 9 10 9 10 9 9 10 10 11 9 8 9 8 6 7 7 7 6 6 6 6 5 5 4 4 2 2 3 1 2 3 1 3 3 3 3 4 4 2 1 3 1 2 1
4 6 2 1 3 4 7 8 4 5 5 6 3 3 4 3 2 2 0 2 5 6 6 5 5 7 6 6 5 7 8 9 10 7 7 6 8 8 6 7 9 9 9 7 7 8 9 9 8 9 9 9 8 8 8 7 8 7 6 7 6 7 6 6 5 4 4 3 4 4 3 5 5 4 3 3 3 3 4 3 3 6 5 4 3 4
Wind_Direction
90 69 51 277 280 312 270 95 91 178 169 107 32 326 356 275 260 283 20 310 136 88 138 171 151 167 182 148 89 126 133 122 133 141 146 151 151 153 150 148 145 142 148 149 144 143 147 151 147 136 121 90 58 38 43 39 18 19 8 33 30 10 21 30 20 6 8 4 351 350 352 337 326 325 326 341 333 3 353 350 343 336 327 318 303 277
66 58 318 251 268 289 11 17 9 6 43 86 121 173 288 132 220 225 209 230 342 111 27 134 145 180 159 127 129 125 129 139 147 150 154 154 152 151 148 146 151 153 141 145 141 147 149 151 142 126 124 109 81 25 37 45 25 10 9 41 44 30 27 19 20 15 7 354 360 322 317 319 314 327 340 333 330 348 346 351 345 339 328 322 323 312
42 107 275 274 326 6 27 29 31 65 33 31 74 120 53 345 277 324 1 75 121 89 227 145 139 184 154 130 105 128 133 151 159 155 157 149 150 152 154 155 156 154 156 152 156 152 157 158 132 122 127 125 130 143 83 2 46 19 20 37 49 36 35 14 7 22 359 324 349 2 322 327 308 300 321 320 317 322 334 350 344 336 330 318 316 312
35 299 266 357 12 23 358 33 41 41 52 49 36 48 61 300 68 337 311 15 311 138 217 215 87 74 65 81 99 116 134 134 125 137 145 151 151 159 164 160 155 154 151 164 168 159 160 150 133 124 128 157 164 111 55 39 59 46 42 52 51 36 31 13 358 12 350 339 345 349 339 326 304 283 319 321 309 316 339 345 330 329 341 326 309 307
168 238 283 23 28 39 20 13 45 69 53 28 74 88 52 13 18 123 321 327 321 337 90 74 73 68 122 121 98 31 38 98 100 110 106 116 139 148 147 151 159 159 164 167 158 155 159 140 141 140 137 169 147 111 91 83 80 83 86 90 73 57 34 8 355 353 354 360 357 349 349 354 0 355 352 351 351 347 341 344 354 340 335 327 307 295
19 316 20 30 23 31 53 40 24 98 42 356 45 109 142 161 26 21 24 36 17 349 308 132 81 221 259 154 113 109 69 82 50 121 129 151 146 152 158 164 172 167 166 158 156 161 164 142 134 132 141 167 137 123 138 128 97 97 107 99 81 59 27 5 354 349 2 9 8 2 6 2 1 349 347 349 330 329 342 340 317 317 322 321 320 305
83 351 60 45 52 32 44 60 34 98 100 61 296 274 59 62 70 26 33 66 19 54 286 37 148 234 348 51 9 50 79 74 59 120 162 174 173 174 171 175 173 168 165 149 145 153 140 138 133 148 149 146 129 143 146 106 99 110 121 118 111 108 58 352 2 4 5 8 360 358 352 345 350 341 317 311 295 302 307 319 326 316 317 324 323 306
3 6 32 34 58 46 30 23 326 93 94 80 251 286 41 14 346 292 1 122 213 253 300 36 124 132 163 279 199 121 108 135 153 192 194 200 198 195 195 190 180 172 162 143 152 158 144 142 143 150 161 152 146 140 117 110 109 122 128 121 112 98 92 349 15 12 5 14 356 347 348 341 347 337 311 316 329 335 325 328 322 325 320 328 342 330
102 350 67 49 52 56 32 247 292 352 106 211 266 272 296 224 249 305 351 59 173 50 297 323 13 74 222 272 131 156 128 205 217 192 206 221 221 217 200 199 193 183 167 142 141 151 146 146 153 156 164 170 135 121 124 118 123 133 126 119 121 105 96 359 33 30 6 13 2 345 335 337 328 326 323 319 313 329 333 333 333 333 328 343 350 350
4 134 141 125 102 30 258 301 18 29 41 277 222 285 359 10 244 200 204 278 334 67 279 290 69 110 297 272 177 252 181 223 226 207 208 210 204 195 188 195 194 185 161 125 149 153 153 154 160 167 153 145 145 139 127 116 114 117 124 126 126 126 165 142 70 42 14 15 17 3 345 340 330 339 336 324 344 349 340 341 339 340 343 343 348 348
261 295 161 81 125 202 335 328 34 25 320 260 44 19 335 15 10 1 59 100 58 40 263 238 227 130 227 226 199 165 218 201 202 167 233 205 185 194 194 188 182 178 168 136 154 154 154 162 156 154 138 143 122 113 118 112 115 125 132 151 139 178 164 55 61 51 4 356 36 359 344 341 332 337 338 349 350 349 347 345 339 343 338 335 336 344
8 348 36 310 86 14 70 0 12 24 30 55 27 30 15 343 6 33 344 43 90 273 261 295 360 81 126 259 234 232 252 184 167 189 186 198 194 183 188 194 185 179 173 159 158 154 142 138 133 131 126 142 118 114 131 114 126 138 159 156 136 91 91 72 64 41 359 334 11 2 343 338 327 336 344 350 342 341 329 330 333 335 338 332 325 348
4 11 342 21 352 68 9 46 330 10 20 43 54 32 67 292 30 341 11 10 148 187 241 129 194 27 29 218 207 206 261 209 194 179 181 183 189 183 193 192 191 186 182 167 168 153 154 143 144 128 149 144 122 155 159 128 145 164 169 170 108 67 147 107 88 58 354 339 329 338 324 325 324 343 337 332 324 323 322 323 331 339 339 334 336 349
296 285 17 321 15 22 90 75 330 8 347 26 45 86 67 37 34 187 280 226 322 298 265 266 62 108 262 327 187 155 219 193 193 191 163 172 179 183 187 191 191 192 192 178 167 148 154 151 148 157 169 164 170 171 151 149 151 169 178 168 83 92 131 95 60 47 14 327 306 304 335 313 314 324 322 312 309 315 317 319 327 328 332 336 333 332
58 353 307 11 4 301 71 144 170 180 190 202 248 123 155 142 161 300 231 206 218 221 290 314 108 205 109 243 305 134 124 101 100 126 156 169 177 178 183 186 188 189 200 159 154 149 163 163 161 169 181 181 174 166 148 156 159 166 159 99 101 112 117 107 105 55 360 319 314 312 320 319 323 305 318 301 298 310 325 321 319 320 325 330 329 321
305 217 258 292 203 128 71 301 104 77 37 293 118 90 50 303 143 303 205 172 241 322 355 356 127 170 141 264 47 70 78 70 97 118 131 150 163 167 174 191 195 194 172 155 158 160 171 170 174 178 191 181 170 164 157 161 172 155 132 119 134 138 149 134 115 13 265 299 298 320 328 323 318 319 327 323 321 317 307 307 311 312 316 317 319 321
28 344 277 349 349 69 114 87 12 99 69 281 51 8 243 190 123 292 357 330 65 53 302 226 20 29 23 19 336 6 94 84 94 124 138 157 170 164 188 201 193 181 163 168 169 166 172 174 177 178 185 197 167 155 170 177 179 151 128 132 132 132 145 146 142 79 294 321 307 327 323 322 326 325 324 318 312 319 321 322 316 312 309 307 318 321
130 261 314 38 30 352 353 78 94 68 138 68 36 277 287 64 123 121 249 327 55 114 254 23 162 203 75 261 286 334 110 189 162 185 171 169 165 178 199 201 191 182 182 179 170 171 170 169 174 190 192 195 171 162 172 170 147 132 147 148 142 144 134 193 145 97 10 346 322 319 329 315 314 322 319 319 323 325 333 331 327 323 323 321 313 313
101 11 303 354 24 316 355 34 10 333 47 88 251 228 69 323 350 324 84 359 336 349 299 356 350 285 166 215 131 254 222 218 217 237 197 196 196 203 201 204 200 185 174 174 167 161 168 169 176 179 196 223 119 158 161 134 127 134 147 157 149 157 175 171 171 100 16 324 311 317 310 300 313 324 319 318 326 331 334 329 327 327 318 322 332 337
50 121 305 308 17 301 21 52 7 304 327 21 39 17 341 102 165 19 203 177 119 252 76 257 42 240 222 224 187 203 214 203 201 212 218 210 206 202 193 198 186 179 178 168 162 165 172 176 173 194 204 209 149 157 147 134 140 134 140 138 156 164 188 176 102 87 22 299 318 342 333 323 321 319 314 325 327 325 327 320 321 322 330 328 323 334
63 112 299 279 321 28 18 2 297 296 338 339 26 337 355 352 219 109 356 72 192 195 167 173 328 282 267 218 187 238 201 202 192 205 213 218 217 205 191 185 179 179 172 166 164 167 170 178 195 210 215 166 154 143 131 138 141 151 160 147 141 134 173 147 142 118 267 282 301 360 343 328 323 325 320 327 326 318 324 325 321 318 310 320 335 338
66 20 78 310 11 16 234 234 229 259 196 152 144 101 179 52 32 48 271 348 40 73 224 120 248 267 268 207 204 189 230 182 201 198 210 220 219 198 191 186 175 172 180 167 168 166 175 189 207 220 159 121 134 122 129 135 132 153 161 167 160 158 171 156 145 146 267 266 299 330 356 334 328 321 330 335 324 326 335 328 318 314 318 328 323 339
142 156 90 360 218 227 232 257 266 257 181 143 126 93 136 128 108 100 37 287 1 294 34 172 125 276 239 224 228 195 221 209 195 198 208 219 216 198 191 178 178 166 164 170 170 177 185 195 199 196 144 131 147 148 139 147 153 164 174 175 182 144 189 169 182 170 182 181 304 324 342 332 330 339 331 332 333 337 331 322 325 322 325 334 346 353
79 68 33 299 314 298 309 313 329 18 46 21 358 32 72 49 162 166 175 197 112 325 36 353 215 247 290 326 295 273 312 256 219 196 193 232 228 176 161 158 152 154 178 174 179 185 189 191 175 126 134 142 145 142 153 164 167 178 179 178 177 127 171 184 190 171 147 149 329 307 6 1 336 333 334 340 336 329 324 329 338 333 8 28 25 19
61 301 118 23 2 335 343 348 356 340 45 79 298 304 67 80 67 126 94 42 219 230 170 127 244 291 276 336 347 6 331 323 240 184 161 135 180 158 157 156 161 168 171 181 186 188 188 173 160 158 163 167 154 144 156 160 173 179 182 179 156 171 167 177 161 137 162 106 360 318 31 16 334 340 339 338 333 330 334 348 4 24 39 34 30 17
92 192 89 101 87 5 329 328 299 301 274 274 301 339 355 29 107 13 321 19 85 274 126 148 262 258 279 316 347 358 314 285 269 86 321 244 157 162 165 166 171 171 179 184 186 184 190 188 173 165 175 168 155 149 157 167 180 175 163 163 187 181 127 116 116 118 79 79 13 317 337 41 345 347 336 330 328 334 340 355 40 45 41 37 26 19
141 86 103 150 152 185 214 227 247 120 13 301 278 334 280 74 82 93 105 102 209 232 321 236 194 277 312 310 326 325 344 314 252 63 155 210 219 178 172 173 175 184 187 185 185 188 168 167 178 178 177 172 153 139 155 162 170 170 156 158 201 215 104 121 104 96 95 42 25 348 324 2 4 329 332 326 321 327 338 41 52 53 48 37 38 24
66 42 316 143 171 199 210 212 220 162 210 243 247 280 297 175 165 126 153 231 188 69 298 266 196 6 274 280 275 286 308 310 312 209 162 196 210 193 194 193 197 198 204 182 174 172 178 180 179 176 174 160 132 142 147 163 163 161 162 174 196 88 91 117 105 101 80 61 22 1 321 320 9 326 324 316 322 327 20 57 48 52 53 51 39 29
138 128 260 98 275 230 204 230 214 169 215 223 213 236 267 261 152 187 230 208 144 190 219 237 186 264 270 267 274 241 234 229 206 207 192 188 186 203 189 192 202 208 206 195 196 184 175 178 183 181 178 163 145 143 154 157 167 172 183 191 169 82 104 132 113 101 91 72 27 337 316 304 7 324 328 319 323 324 56 55 48 37 61 58 41 40
86 262 214 154 322 331 309 270 230 203 259 258 257 238 229 210 220 212 233 200 177 209 217 241 257 252 249 268 272 252 224 215 230 217 34 221 204 187 188 196 201 206 205 202 196 191 185 176 177 183 171 162 152 149 156 163 167 173 156 153 117 103 120 114 105 105 100 78 353 318 310 333 359 330 311 310 324 12 94 86 62 62 60 72 65 70
104 268 190 93 49 310 279 321 148 212 196 247 266 261 266 251 251 219 245 269 189 304 285 236 265 278 268 224 251 277 288 294 306 265 214 219 245 214 185 191 200 205 207 206 194 187 180 181 180 172 167 164 158 157 158 171 168 160 172 190 189 93 136 113 120 120 118 80 311 296 285 5 355 329 328 330 344 99 96 90 87 63 56 75 64 67
72 257 50 71 39 304 298 286 294 335 277 254 279 285 278 200 241 233 182 216 150 226 105 57 317 274 277 272 245 277 279 206 232 235 248 247 209 210 249 208 196 205 200 192 188 181 179 180 170 169 168 156 153 157 157 167 172 160 205 215 93 121 128 119 126 134 124 172 298 291 305 22 351 334 341 359 23 57 74 40 50 53 64 78 91 94
170 126 148 160 284 257 261 348 316 9 17 347 311 256 210 218 196 316 284 240 214 147 126 192 234 225 241 281 343 312 271 250 249 242 255 272 215 185 190 212 225 224 191 175 177 182 181 169 166 155 137 137 147 161 184 162 155 189 211 29 65 136 121 134 147 148 152 214 241 274 343 25 348 345 344 17 34 5 340 17 42 18 27 84 100 110
121 133 162 150 141 248 282 325 23 52 19 250 235 178 147 180 200 202 250 221 217 165 204 194 229 252 278 284 264 267 269 239 222 235 200 164 170 144 155 181 208 201 189 180 174 159 135 126 124 132 145 154 168 184 187 177 164 185 177 64 96 137 136 141 171 161 194 208 230 186 56 17 337 334 332 35 40 345 351 6 340 309 314 118 123 148
162 109 165 138 123 264 299 15 35 350 236 240 277 244 186 169 154 192 239 250 246 246 280 292 276 267 248 240 236 247 252 263 260 240 189 206 146 155 156 148 137 143 143 132 116 124 131 131 125 124 117 134 146 153 132 79 18 96 39 28 83 142 142 171 173 182 198 223 243 211 118 89 325 4 323 41 6 348 5 13 317 328 310 167 173 183
159 135 163 27 157 32 40 49 58 243 238 268 280 264 223 123 170 116 318 286 252 224 219 242 255 257 274 286 278 252 250 264 349 360 310 243 172 144 142 147 158 142 143 156 137 142 140 140 142 143 151 154 121 133 133 169 230 83 36 10 64 153 163 174 183 177 202 252 253 35 262 224 82 338 325 343 1 352 330 319 335 333 316 266 189 158
146 116 110 242 192 214 199 167 220 294 333 333 360 49 134 198 186 166 234 276 250 302 198 226 259 267 282 278 268 284 300 29 28 319 309 272 231 164 146 159 161 153 138 150 145 146 149 149 146 156 143 142 142 141 157 222 77 60 38 19 18 151 166 174 181 176 214 231 228 246 268 280 91 266 304 304 3 329 319 313 296 310 300 297 202 159
151 161 227 112 276 124 147 328 344 12 302 277 242 270 252 191 149 161 102 293 301 355 19 181 285 304 285 262 307 331 27 47 344 301 290 287 169 112 90 126 131 130 136 134 129 133 144 155 153 158 146 149 156 169 185 199 97 53 48 17 357 140 167 167 182 175 199 215 234 246 261 280 274 25 266 279 259 259 269 274 280 271 258 249 195 171
27 75 132 130 190 57 48 165 225 177 245 214 253 298 308 156 124 123 51 299 265 247 302 110 64 357 12 345 323 16 50 4 253 252 260 236 188 145 133 144 144 147 149 150 151 154 161 168 166 167 154 147 155 200 207 186 105 31 27 357 271 72 107 150 197 175 186 208 233 236 232 247 256 254 351 336 310 308 307 298 284 282 235 257 168 169
63 15 49 48 91 191 145 149 254 208 230 314 246 264 280 91 77 61 11 278 262 267 270 356 78 68 343 0 350 57 116 157 250 253 230 214 194 173 148 148 144 147 154 156 160 158 165 165 145 139 152 161 180 193 194 183 127 104 105 281 255 109 106 20 147 165 198 210 229 212 252 261 271 285 293 292 298 307 298 291 303 314 339 327 216 226
125 291 132 201 189 226 164 252 315 304 274 245 232 221 229 109 75 89 226 238 244 240 248 216 112 288 71 360 339 323 236 191 214 211 214 181 121 157 172 163 165 164 162 168 172 164 154 168 164 170 177 181 180 187 190 169 120 311 98 194 246 159 216 118 134 166 193 205 233 236 242 251 244 266 284 276 273 289 322 331 315 331 357 325 299 270
334 115 319 85 159 196 197 177 225 235 237 193 254 208 196 61 224 216 236 201 163 224 245 183 116 291 291 257 237 235 247 280 305 252 169 194 180 179 172 166 152 168 170 169 165 160 162 169 180 164 183 190 174 187 183 165 127 207 127 148 194 224 246 108 151 179 179 196 210 242 259 268 282 252 264 284 313 319 330 330 359 39 4 320 268 231
209 142 211 197 220 71 70 137 352 330 264 166 179 9 44 122 231 212 182 222 190 192 213 264 212 247 187 275 234 250 322 2 347 306 283 252 185 177 175 164 166 167 163 154 173 186 161 169 176 178 179 186 182 187 187 152 143 156 133 145 205 220 195 126 153 177 181 194 217 243 252 274 302 305 304 287 276 101 110 315 42 18 10 356 32 62
204 111 267 268 179 192 136 157 204 209 221 207 150 187 228 209 192 172 147 220 240 195 207 224 249 228 212 200 251 234 173 232 298 259 252 262 262 211 186 181 175 171 174 179 175 180 175 172 175 180 181 181 188 192 186 153 172 157 161 194 212 206 141 117 112 121 168 189 202 271 279 301 330 342 344 82 102 118 96 40 42 37 13 18 72 78
234 194 178 218 245 133 205 218 243 226 200 201 183 216 224 235 170 172 162 177 184 244 220 198 239 250 219 216 232 249 225 232 234 246 276 261 236 212 194 194 182 179 180 180 189 182 178 175 178 176 180 191 194 197 181 180 173 171 167 217 175 204 146 136 128 180 197 123 131 245 231 98 52 352 38 37 86 88 80 59 49 62 9 41 63 76
244 205 173 86 251 276 259 216 247 33 322 298 255 249 271 3 11 189 173 200 250 218 181 198 228 241 255 211 202 273 224 238 240 271 248 231 217 242 251 215 202 193 185 182 180 183 187 183 172 170 180 198 204 196 188 193 172 178 203 198 194 209 155 154 145 153 179 219 208 247 334 92 81 41 36 50 49 69 78 93 87 95 63 61 64 72
295 246 70 319 266 37 267 330 21 312 268 210 276 300 281 217 183 179 198 217 235 227 230 236 226 231 225 201 212 234 250 225 225 260 264 263 242 214 212 211 204 192 184 189 195 181 182 176 177 184 183 190 208 202 200 194 199 201 181 170 198 174 155 140 161 141 171 247 267 287 238 112 103 83 54 39 53 58 59 57 81 93 92 94 90 84
321 252 36 231 138 159 227 232 219 246 221 153 160 112 170 246 207 198 208 216 222 226 218 235 219 253 216 228 221 215 236 225 204 229 240 240 248 237 212 211 209 207 209 196 188 181 178 181 186 188 185 193 197 200 201 200 198 205 180 166 171 158 144 141 157 155 172 221 237 236 170 150 159 121 73 25 30 53 46 41 51 85 95 122 131 114
200 100 246 195 228 279 317 287 282 351 342 325 273 213 185 200 210 246 238 226 222 230 241 248 210 228 202 231 230 222 238 249 218 215 221 242 241 241 225 215 213 205 201 199 200 184 184 188 191 191 186 195 193 193 196 198 199 192 176 177 174 155 145 161 171 170 171 166 223 260 288 177 133 131 120 92 55 47 71 86 75 97 74 353 291 146
92 247 233 58 3 326 237 231 181 206 264 280 279 246 240 226 191 221 261 278 290 271 266 269 282 266 242 250 248 227 232 253 253 224 236 237 238 228 218 219 216 215 211 205 193 193 190 185 186 187 190 196 189 190 190 187 190 190 187 174 168 153 156 166 183 187 214 180 192 227 187 182 147 156 128 131 118 93 54 28 72 153 140 112 14 23
209 223 158 200 179 244 250 247 211 179 194 220 212 228 225 209 145 75 147 221 239 226 226 224 255 291 290 268 225 216 231 234 248 232 235 249 246 240 219 208 208 212 213 194 187 199 194 193 189 183 188 192 185 186 186 185 184 186 188 174 166 165 165 165 177 189 218 213 234 228 189 176 162 158 150 135 133 120 109 70 24 45 73 89 70 43